Time,TemperatureF,DewpointF,PressureIn,WindDirection,WindDirectionDegrees,WindSpeedMPH,WindSpeedGustMPH,Humidity,HourlyPrecipIn,Conditions,Clouds,dailyrainin,SoftwareType,DateUTC
2013-02-06 00:02:00,34.0,28.0,29.98,WNW,300,5.0,-999.0,80,-99.99,,,-99.99,,2013-02-06 05:02:00,
2013-02-06 00:12:00,32.0,28.0,29.98,WNW,290,6.0,-999.0,86,-99.99,,,-99.99,,2013-02-06 05:12:00,
2013-02-06 00:22:00,32.0,27.0,29.99,WNW,290,6.0,-999.0,80,-99.99,,,-99.99,,2013-02-06 05:22:00,
2013-02-06 00:32:00,32.0,27.0,30.00,West,280,12.0,18.0,80,-99.99,,,-99.99,,2013-02-06 05:32:00,
2013-02-06 00:41:00,32.0,27.0,30.00,WNW,290,8.0,18.0,80,-99.99,,,-99.99,,2013-02-06 05:41:00,
2013-02-06 00:53:00,32.0,27.0,30.01,West,280,9.0,-999.0,80,-99.99,,,-99.99,,2013-02-06 05:53:00,
2013-02-06 01:01:00,32.0,27.0,30.02,WNW,290,8.0,-999.0,80,-99.99,,,-99.99,,2013-02-06 06:01:00,
2013-02-06 01:11:00,32.0,27.0,30.02,WNW,300,13.0,17.0,80,-99.99,,,-99.99,,2013-02-06 06:11:00,
2013-02-06 01:21:00,32.0,27.0,30.03,WNW,300,7.0,-999.0,80,-99.99,,,-99.99,,2013-02-06 06:21:00,
2013-02-06 01:32:00,32.0,27.0,30.03,NW,310,8.0,-999.0,80,-99.99,,,-99.99,,2013-02-06 06:32:00,
2013-02-06 01:42:00,32.0,27.0,30.03,NW,310,8.0,-999.0,80,-99.99,,,-99.99,,2013-02-06 06:42:00,
2013-02-06 01:51:00,30.0,27.0,30.04,NW,310,7.0,-999.0,86,-99.99,,,-99.99,,2013-02-06 06:51:00,
2013-02-06 02:02:00,30.0,27.0,30.04,NW,310,5.0,-999.0,86,-99.99,,,-99.99,,2013-02-06 07:02:00,
2013-02-06 02:11:00,30.0,27.0,30.05,WNW,300,7.0,-999.0,86,-99.99,,,-99.99,,2013-02-06 07:11:00,
2013-02-06 02:22:00,30.0,27.0,30.05,NW,310,6.0,-999.0,86,-99.99,,,-99.99,,2013-02-06 07:22:00,
2013-02-06 02:32:00,30.0,25.0,30.05,WNW,300,6.0,-999.0,80,-99.99,,,-99.99,,2013-02-06 07:32:00,
2013-02-06 02:42:00,30.0,25.0,30.05,WNW,290,8.0,-999.0,80,-99.99,,,-99.99,,2013-02-06 07:42:00,
2013-02-06 02:51:00,30.0,25.0,30.06,NW,310,8.0,-999.0,80,-99.99,,,-99.99,,2013-02-06 07:51:00,
2013-02-06 03:01:00,30.0,25.0,30.06,WNW,300,6.0,-999.0,80,-99.99,,,-99.99,,2013-02-06 08:01:00,
2013-02-06 03:11:00,30.0,25.0,30.06,WNW,290,6.0,-999.0,80,-99.99,,,-99.99,,2013-02-06 08:11:00,
2013-02-06 03:21:00,30.0,25.0,30.08,WNW,290,5.0,-999.0,80,-99.99,,,-99.99,,2013-02-06 08:21:00,
2013-02-06 03:32:00,30.0,25.0,30.08,West,280,6.0,-999.0,80,-99.99,,,-99.99,,2013-02-06 08:32:00,
2013-02-06 03:42:00,30.0,25.0,30.08,West,270,6.0,-999.0,80,-99.99,,,-99.99,,2013-02-06 08:42:00,
2013-02-06 03:53:00,30.0,25.0,30.09,WNW,300,5.0,-999.0,80,-99.99,,,-99.99,,2013-02-06 08:53:00,
2013-02-06 04:02:00,30.0,25.0,30.09,WNW,300,6.0,-999.0,80,-99.99,,,-99.99,,2013-02-06 09:02:00,
2013-02-06 04:11:00,30.0,25.0,30.10,WNW,300,6.0,-999.0,80,-99.99,,,-99.99,,2013-02-06 09:11:00,
2013-02-06 04:21:00,30.0,25.0,30.10,WNW,300,6.0,-999.0,80,-99.99,,,-99.99,,2013-02-06 09:21:00,
2013-02-06 04:32:00,30.0,25.0,30.10,WNW,290,6.0,-999.0,80,-99.99,,,-99.99,,2013-02-06 09:32:00,
2013-02-06 04:42:00,30.0,25.0,30.10,WNW,300,6.0,-999.0,80,-99.99,,,-99.99,,2013-02-06 09:42:00,
2013-02-06 04:52:00,30.0,23.0,30.10,NW,310,5.0,-999.0,74,-99.99,,,-99.99,,2013-02-06 09:52:00,
2013-02-06 05:01:00,30.0,25.0,30.10,WNW,300,6.0,-999.0,80,-99.99,,,-99.99,,2013-02-06 10:01:00,
2013-02-06 05:11:00,30.0,25.0,30.11,NW,310,3.0,-999.0,80,-99.99,,,-99.99,,2013-02-06 10:11:00,
2013-02-06 05:21:00,30.0,23.0,30.12,WNW,290,6.0,-999.0,74,-99.99,,,-99.99,,2013-02-06 10:21:00,
2013-02-06 05:32:00,30.0,23.0,30.13,WNW,290,3.0,-999.0,74,-99.99,,,-99.99,,2013-02-06 10:32:00,
2013-02-06 05:42:00,30.0,23.0,30.13,West,280,5.0,-999.0,74,-99.99,,,-99.99,,2013-02-06 10:42:00,
2013-02-06 05:52:00,30.0,23.0,30.14,WNW,300,5.0,-999.0,74,-99.99,,,-99.99,,2013-02-06 10:52:00,
2013-02-06 06:01:00,30.0,23.0,30.14,North,0,0.0,-999.0,74,-99.99,,,-99.99,,2013-02-06 11:01:00,
2013-02-06 06:11:00,30.0,23.0,30.14,North,0,0.0,-999.0,74,-99.99,,,-99.99,,2013-02-06 11:11:00,
2013-02-06 06:22:00,30.0,23.0,30.15,North,0,0.0,-999.0,74,-99.99,,,-99.99,,2013-02-06 11:22:00,
2013-02-06 06:32:00,30.0,23.0,30.15,North,0,0.0,-999.0,74,-99.99,,,-99.99,,2013-02-06 11:32:00,
2013-02-06 06:42:00,30.0,21.0,30.15,West,260,3.0,-999.0,68,-99.99,,,-99.99,,2013-02-06 11:42:00,
2013-02-06 06:52:00,30.0,21.0,30.17,North,0,0.0,-999.0,68,-99.99,,,-99.99,,2013-02-06 11:52:00,
2013-02-06 07:02:00,30.0,21.0,30.17,West,280,3.0,-999.0,68,-99.99,,,-99.99,,2013-02-06 12:02:00,
2013-02-06 07:12:00,30.0,21.0,30.18,North,0,0.0,-999.0,68,-99.99,,,-99.99,,2013-02-06 12:12:00,
2013-02-06 07:22:00,30.0,21.0,30.18,North,0,0.0,-999.0,68,-99.99,,,-99.99,,2013-02-06 12:22:00,
2013-02-06 07:32:00,30.0,21.0,30.19,North,350,6.0,-999.0,68,-99.99,,,-99.99,,2013-02-06 12:32:00,
2013-02-06 07:42:00,28.0,21.0,30.20,North,350,7.0,-999.0,74,-99.99,,,-99.99,,2013-02-06 12:42:00,
2013-02-06 07:52:00,28.0,21.0,30.20,North,350,6.0,-999.0,74,-99.99,,,-99.99,,2013-02-06 12:52:00,
2013-02-06 08:02:00,28.0,21.0,30.20,North,360,7.0,-999.0,74,-99.99,,,-99.99,,2013-02-06 13:02:00,
2013-02-06 08:12:00,28.0,21.0,30.20,NNE,20,6.0,-999.0,74,-99.99,,,-99.99,,2013-02-06 13:12:00,
2013-02-06 08:22:00,28.0,21.0,30.21,NNE,20,8.0,-999.0,74,-99.99,,,-99.99,,2013-02-06 13:22:00,
2013-02-06 08:32:00,28.0,19.0,30.22,NNE,20,6.0,-999.0,68,-99.99,,,-99.99,,2013-02-06 13:32:00,
2013-02-06 08:42:00,28.0,19.0,30.22,NNE,20,5.0,-999.0,68,-99.99,,,-99.99,,2013-02-06 13:42:00,
2013-02-06 08:52:00,28.0,19.0,30.23,NNE,30,5.0,-999.0,68,-99.99,,,-99.99,,2013-02-06 13:52:00,
2013-02-06 09:02:00,28.0,19.0,30.23,NNE,30,6.0,-999.0,68,-99.99,,,-99.99,,2013-02-06 14:02:00,
2013-02-06 09:11:00,28.0,19.0,30.23,NNE,30,7.0,-999.0,68,-99.99,,,-99.99,,2013-02-06 14:11:00,
2013-02-06 09:22:00,28.0,18.0,30.24,NNE,30,7.0,-999.0,63,-99.99,,,-99.99,,2013-02-06 14:22:00,
2013-02-06 09:32:00,28.0,18.0,30.24,NNE,30,5.0,-999.0,63,-99.99,,,-99.99,,2013-02-06 14:32:00,
2013-02-06 09:42:00,28.0,18.0,30.24,NNE,30,3.0,-999.0,63,-99.99,,,-99.99,,2013-02-06 14:42:00,
2013-02-06 09:52:00,28.0,18.0,30.23,NE,50,5.0,-999.0,63,-99.99,,,-99.99,,2013-02-06 14:52:00,
2013-02-06 10:02:00,28.0,18.0,30.24,NE,40,5.0,-999.0,63,-99.99,,,-99.99,,2013-02-06 15:02:00,
2013-02-06 10:11:00,28.0,18.0,30.23,East,80,5.0,-999.0,63,-99.99,,,-99.99,,2013-02-06 15:11:00,
2013-02-06 10:21:00,28.0,18.0,30.24,East,90,7.0,-999.0,63,-99.99,,,-99.99,,2013-02-06 15:21:00,
2013-02-06 10:32:00,28.0,16.0,30.23,East,90,7.0,-999.0,58,-99.99,,,-99.99,,2013-02-06 15:32:00,
2013-02-06 10:42:00,28.0,16.0,30.23,East,90,8.0,-999.0,58,-99.99,,,-99.99,,2013-02-06 15:42:00,
2013-02-06 10:52:00,28.0,14.0,30.23,East,80,5.0,-999.0,54,-99.99,,,-99.99,,2013-02-06 15:52:00,
2013-02-06 11:01:00,28.0,12.0,30.24,East,90,7.0,-999.0,50,-99.99,,,-99.99,,2013-02-06 16:01:00,
2013-02-06 11:11:00,30.0,12.0,30.24,ENE,60,3.0,-999.0,46,-99.99,,,-99.99,,2013-02-06 16:11:00,
2013-02-06 11:21:00,30.0,12.0,30.25,NE,40,5.0,-999.0,46,-99.99,,,-99.99,,2013-02-06 16:21:00,
2013-02-06 11:32:00,30.0,12.0,30.25,NE,50,5.0,-999.0,46,-99.99,,,-99.99,,2013-02-06 16:32:00,
2013-02-06 11:42:00,30.0,14.0,30.25,NE,40,6.0,-999.0,50,-99.99,,,-99.99,,2013-02-06 16:42:00,
2013-02-06 11:52:00,30.0,12.0,30.26,North,0,0.0,-999.0,46,-99.99,,,-99.99,,2013-02-06 16:52:00,
2013-02-06 12:02:00,30.0,10.0,30.26,North,0,0.0,-999.0,43,-99.99,,,-99.99,,2013-02-06 17:02:00,
2013-02-06 12:12:00,30.0,10.0,30.27,North,0,0.0,-999.0,43,-99.99,,,-99.99,,2013-02-06 17:12:00,
2013-02-06 12:22:00,30.0,10.0,30.27,East,90,6.0,-999.0,43,-99.99,,,-99.99,,2013-02-06 17:22:00,
2013-02-06 12:32:00,30.0,12.0,30.27,East,80,6.0,-999.0,46,-99.99,,,-99.99,,2013-02-06 17:32:00,
2013-02-06 12:42:00,30.0,12.0,30.27,ESE,110,6.0,-999.0,46,-99.99,,,-99.99,,2013-02-06 17:42:00,
2013-02-06 12:52:00,30.0,12.0,30.26,East,80,3.0,-999.0,46,-99.99,,,-99.99,,2013-02-06 17:52:00,
2013-02-06 13:02:00,30.0,12.0,30.27,East,90,3.0,-999.0,46,-99.99,,,-99.99,,2013-02-06 18:02:00,
2013-02-06 13:12:00,32.0,12.0,30.26,East,90,5.0,-999.0,43,-99.99,,,-99.99,,2013-02-06 18:12:00,
2013-02-06 13:23:00,32.0,12.0,30.25,ESE,120,7.0,-999.0,43,-99.99,,,-99.99,,2013-02-06 18:23:00,
2013-02-06 13:32:00,30.0,12.0,30.25,East,80,5.0,-999.0,46,-99.99,,,-99.99,,2013-02-06 18:32:00,
2013-02-06 13:42:00,32.0,12.0,30.24,ESE,120,6.0,-999.0,43,-99.99,,,-99.99,,2013-02-06 18:42:00,
2013-02-06 13:52:00,32.0,12.0,30.25,ESE,120,5.0,-999.0,43,-99.99,,,-99.99,,2013-02-06 18:52:00,
2013-02-06 14:02:00,30.0,12.0,30.25,East,100,3.0,-999.0,46,-99.99,,,-99.99,,2013-02-06 19:02:00,
2013-02-06 14:11:00,32.0,14.0,30.25,East,90,5.0,-999.0,46,-99.99,,,-99.99,,2013-02-06 19:11:00,
2013-02-06 14:21:00,32.0,12.0,30.25,East,90,5.0,-999.0,43,-99.99,,,-99.99,,2013-02-06 19:21:00,
2013-02-06 14:32:00,32.0,12.0,30.25,ESE,120,3.0,-999.0,43,-99.99,,,-99.99,,2013-02-06 19:32:00,
2013-02-06 14:42:00,32.0,16.0,30.25,East,80,3.0,-999.0,50,-99.99,,,-99.99,,2013-02-06 19:42:00,
2013-02-06 14:52:00,32.0,16.0,30.25,East,90,6.0,-999.0,50,-99.99,,,-99.99,,2013-02-06 19:52:00,
2013-02-06 15:01:00,34.0,16.0,30.25,East,80,6.0,-999.0,47,-99.99,,,-99.99,,2013-02-06 20:01:00,
2013-02-06 15:11:00,34.0,16.0,30.25,ESE,110,5.0,-999.0,47,-99.99,,,-99.99,,2013-02-06 20:11:00,
2013-02-06 15:21:00,34.0,16.0,30.25,SSE,150,3.0,-999.0,47,-99.99,,,-99.99,,2013-02-06 20:21:00,
2013-02-06 15:32:00,34.0,16.0,30.25,East,100,3.0,-999.0,47,-99.99,,,-99.99,,2013-02-06 20:32:00,
2013-02-06 15:42:00,34.0,16.0,30.25,East,90,5.0,-999.0,47,-99.99,,,-99.99,,2013-02-06 20:42:00,
2013-02-06 15:52:00,34.0,16.0,30.25,East,90,5.0,-999.0,47,-99.99,,,-99.99,,2013-02-06 20:52:00,
2013-02-06 16:02:00,34.0,16.0,30.25,ENE,60,5.0,-999.0,47,-99.99,,,-99.99,,2013-02-06 21:02:00,
2013-02-06 16:11:00,34.0,16.0,30.25,East,100,7.0,-999.0,47,-99.99,,,-99.99,,2013-02-06 21:11:00,
2013-02-06 16:21:00,34.0,18.0,30.25,East,80,6.0,-999.0,51,-99.99,,,-99.99,,2013-02-06 21:21:00,
2013-02-06 16:32:00,34.0,18.0,30.25,ESE,120,7.0,-999.0,51,-99.99,,,-99.99,,2013-02-06 21:32:00,
2013-02-06 16:42:00,34.0,18.0,30.25,ESE,110,5.0,-999.0,51,-99.99,,,-99.99,,2013-02-06 21:42:00,
2013-02-06 16:51:00,34.0,18.0,30.25,East,100,6.0,-999.0,51,-99.99,,,-99.99,,2013-02-06 21:51:00,
2013-02-06 17:01:00,34.0,18.0,30.25,East,90,3.0,-999.0,51,-99.99,,,-99.99,,2013-02-06 22:01:00,
2013-02-06 17:11:00,34.0,18.0,30.25,East,90,3.0,-999.0,51,-99.99,,,-99.99,,2013-02-06 22:11:00,
2013-02-06 17:21:00,32.0,16.0,30.26,East,80,3.0,-999.0,50,-99.99,,,-99.99,,2013-02-06 22:21:00,
2013-02-06 17:32:00,32.0,16.0,30.26,East,80,3.0,-999.0,50,-99.99,,,-99.99,,2013-02-06 22:32:00,
2013-02-06 17:42:00,32.0,16.0,30.26,North,0,0.0,-999.0,50,-99.99,,,-99.99,,2013-02-06 22:42:00,
2013-02-06 17:52:00,32.0,18.0,30.26,North,0,0.0,-999.0,54,-99.99,,,-99.99,,2013-02-06 22:52:00,
2013-02-06 18:01:00,30.0,18.0,30.26,East,80,5.0,-999.0,59,-99.99,,,-99.99,,2013-02-06 23:01:00,
2013-02-06 18:11:00,30.0,18.0,30.26,East,100,5.0,-999.0,59,-99.99,,,-99.99,,2013-02-06 23:11:00,
2013-02-06 18:21:00,28.0,19.0,30.25,East,100,6.0,-999.0,68,-99.99,,,-99.99,,2013-02-06 23:21:00,
2013-02-06 18:32:00,28.0,19.0,30.26,East,90,6.0,-999.0,68,-99.99,,,-99.99,,2013-02-06 23:32:00,
2013-02-06 18:42:00,28.0,18.0,30.26,East,90,6.0,-999.0,63,-99.99,,,-99.99,,2013-02-06 23:42:00,
2013-02-06 18:52:00,28.0,18.0,30.26,East,100,5.0,-999.0,63,-99.99,,,-99.99,,2013-02-06 23:52:00,
2013-02-06 19:02:00,28.0,18.0,30.26,East,90,5.0,-999.0,63,-99.99,,,-99.99,,2013-02-07 00:02:00,
2013-02-06 19:11:00,28.0,19.0,30.26,East,90,5.0,-999.0,68,-99.99,,,-99.99,,2013-02-07 00:11:00,
2013-02-06 19:21:00,27.0,19.0,30.25,East,80,6.0,-999.0,73,-99.99,,,-99.99,,2013-02-07 00:21:00,
2013-02-06 19:32:00,27.0,18.0,30.25,East,90,6.0,-999.0,68,-99.99,,,-99.99,,2013-02-07 00:32:00,
2013-02-06 19:42:00,27.0,18.0,30.25,East,90,5.0,-999.0,68,-99.99,,,-99.99,,2013-02-07 00:42:00,
2013-02-06 19:52:00,25.0,18.0,30.25,East,90,5.0,-999.0,73,-99.99,,,-99.99,,2013-02-07 00:52:00,
2013-02-06 20:01:00,27.0,18.0,30.25,East,90,3.0,-999.0,68,-99.99,,,-99.99,,2013-02-07 01:01:00,
2013-02-06 20:11:00,27.0,18.0,30.25,ESE,110,3.0,-999.0,68,-99.99,,,-99.99,,2013-02-07 01:11:00,
2013-02-06 20:21:00,27.0,19.0,30.25,East,100,6.0,-999.0,73,-99.99,,,-99.99,,2013-02-07 01:21:00,
2013-02-06 20:32:00,27.0,19.0,30.24,East,100,6.0,-999.0,73,-99.99,,,-99.99,,2013-02-07 01:32:00,
2013-02-06 20:42:00,27.0,21.0,30.25,SE,130,5.0,-999.0,79,-99.99,,,-99.99,,2013-02-07 01:42:00,
2013-02-06 20:52:00,28.0,21.0,30.24,SE,130,6.0,-999.0,74,-99.99,,,-99.99,,2013-02-07 01:52:00,
2013-02-06 21:01:00,28.0,21.0,30.25,SE,140,5.0,-999.0,74,-99.99,,,-99.99,,2013-02-07 02:01:00,
2013-02-06 21:11:00,28.0,21.0,30.25,SE,130,8.0,-999.0,74,-99.99,,,-99.99,,2013-02-07 02:11:00,
2013-02-06 21:21:00,28.0,21.0,30.24,SE,130,7.0,-999.0,74,-99.99,,,-99.99,,2013-02-07 02:21:00,
2013-02-06 21:32:00,28.0,21.0,30.22,ESE,110,8.0,-999.0,74,-99.99,,,-99.99,,2013-02-07 02:32:00,
2013-02-06 21:41:00,28.0,21.0,30.22,ESE,110,8.0,-999.0,74,-99.99,,,-99.99,,2013-02-07 02:41:00,
2013-02-06 21:51:00,28.0,21.0,30.22,ESE,110,8.0,-999.0,74,-99.99,,,-99.99,,2013-02-07 02:51:00,
2013-02-06 22:02:00,28.0,21.0,30.21,ESE,110,6.0,-999.0,74,-99.99,,,-99.99,,2013-02-07 03:02:00,
2013-02-06 22:11:00,28.0,21.0,30.22,SE,130,7.0,-999.0,74,-99.99,,,-99.99,,2013-02-07 03:11:00,
2013-02-06 22:21:00,28.0,21.0,30.22,SE,130,6.0,-999.0,74,-99.99,,,-99.99,,2013-02-07 03:21:00,
2013-02-06 22:32:00,28.0,21.0,30.22,SE,130,5.0,-999.0,74,-99.99,,,-99.99,,2013-02-07 03:32:00,
2013-02-06 22:42:00,28.0,21.0,30.22,SE,130,5.0,-999.0,74,-99.99,,,-99.99,,2013-02-07 03:42:00,
2013-02-06 22:52:00,28.0,21.0,30.22,SE,130,3.0,-999.0,74,-99.99,,,-99.99,,2013-02-07 03:52:00,
2013-02-06 23:01:00,27.0,21.0,30.23,North,0,0.0,-999.0,79,-99.99,,,-99.99,,2013-02-07 04:01:00,
2013-02-06 23:11:00,27.0,21.0,30.22,SE,140,5.0,-999.0,79,-99.99,,,-99.99,,2013-02-07 04:11:00,
2013-02-06 23:22:00,27.0,21.0,30.22,SE,140,7.0,-999.0,79,-99.99,,,-99.99,,2013-02-07 04:22:00,
2013-02-06 23:32:00,28.0,21.0,30.20,SE,130,6.0,-999.0,74,-99.99,,,-99.99,,2013-02-07 04:32:00,
2013-02-06 23:41:00,28.0,21.0,30.20,SE,130,6.0,-999.0,74,-99.99,,,-99.99,,2013-02-07 04:41:00,
2013-02-06 23:53:00,28.0,23.0,30.20,SE,130,6.0,-999.0,79,-99.99,,,-99.99,,2013-02-07 04:53:00,